Time,TemperatureF,DewpointF,PressureIn,WindDirection,WindDirectionDegrees,WindSpeedMPH,WindSpeedGustMPH,Humidity,HourlyPrecipIn,Conditions,Clouds,dailyrainin,SolarRadiationWatts/m^2,SoftwareType,DateUTC
2013-06-18 00:02:00,66.0,63.0,29.95,North,9,2.0,6.0,87,0.00,,,0.00,0.0,meteohub,2013-06-18 04:02:00,
2013-06-18 00:07:00,65.8,62.8,29.94,North,5,2.0,6.0,87,0.00,,,0.00,0.0,meteohub,2013-06-18 04:07:00,
2013-06-18 00:08:00,65.8,62.8,29.94,NNE,12,0.0,6.0,87,0.00,,,0.00,0.0,meteohub,2013-06-18 04:08:00,
2013-06-18 00:14:00,66.0,63.0,29.93,ESE,104,0.0,6.0,87,0.00,,,0.00,0.0,meteohub,2013-06-18 04:14:00,
2013-06-18 00:20:00,66.0,63.3,29.93,ESE,104,0.0,4.0,88,0.00,,,0.00,0.0,meteohub,2013-06-18 04:20:00,
2013-06-18 00:27:00,66.0,63.3,29.92,ESE,104,0.0,4.0,88,0.00,,,0.00,0.0,meteohub,2013-06-18 04:27:00,
2013-06-18 00:32:00,65.8,63.1,29.92,ESE,104,0.0,4.0,88,0.00,,,0.00,0.0,meteohub,2013-06-18 04:32:00,
2013-06-18 00:37:00,65.7,63.0,29.92,ESE,104,0.0,2.0,88,0.00,,,0.00,0.0,meteohub,2013-06-18 04:37:00,
2013-06-18 00:42:00,65.7,63.3,29.92,ESE,105,0.0,2.0,89,0.00,,,0.00,0.0,meteohub,2013-06-18 04:42:00,
2013-06-18 00:47:00,65.5,63.1,29.92,ESE,105,0.0,2.0,89,0.00,,,0.00,0.0,meteohub,2013-06-18 04:47:00,
2013-06-18 00:52:00,65.5,63.1,29.93,ESE,105,0.0,1.0,89,0.00,,,0.00,0.0,meteohub,2013-06-18 04:52:00,
2013-06-18 00:57:00,65.5,63.1,29.92,ESE,105,0.0,1.0,89,0.00,,,0.00,0.0,meteohub,2013-06-18 04:57:00,
2013-06-18 01:02:00,65.3,63.0,29.92,ESE,105,0.0,1.0,89,0.00,,,0.00,0.0,meteohub,2013-06-18 05:02:00,
2013-06-18 01:07:00,65.3,63.1,29.92,ESE,105,0.0,0.0,90,0.00,,,0.00,0.0,meteohub,2013-06-18 05:07:00,
2013-06-18 01:12:00,65.3,63.1,29.92,ESE,105,0.0,0.0,90,0.00,,,0.00,0.0,meteohub,2013-06-18 05:12:00,
2013-06-18 01:17:00,65.1,63.0,29.91,ESE,105,0.0,0.0,90,0.00,,,0.00,0.0,meteohub,2013-06-18 05:17:00,
2013-06-18 01:22:00,65.1,63.0,29.91,ESE,105,0.0,0.0,90,0.00,,,0.00,0.0,meteohub,2013-06-18 05:22:00,
2013-06-18 01:27:00,65.1,63.0,29.91,ESE,105,0.0,2.0,90,0.00,,,0.00,0.0,meteohub,2013-06-18 05:27:00,
2013-06-18 01:32:00,64.9,62.8,29.91,ESE,105,0.0,2.0,90,0.00,,,0.00,0.0,meteohub,2013-06-18 05:32:00,
2013-06-18 01:37:00,64.8,62.6,29.90,ESE,105,0.0,2.0,90,0.00,,,0.00,0.0,meteohub,2013-06-18 05:37:00,
2013-06-18 01:42:00,64.8,62.6,29.90,ESE,105,0.0,2.0,90,0.00,,,0.00,0.0,meteohub,2013-06-18 05:42:00,
2013-06-18 01:47:00,64.6,62.4,29.89,ESE,105,0.0,2.0,90,0.00,,,0.00,0.0,meteohub,2013-06-18 05:47:00,
2013-06-18 01:52:00,64.4,62.6,29.89,ESE,105,0.0,2.0,91,0.00,,,0.00,0.0,meteohub,2013-06-18 05:52:00,
2013-06-18 01:57:00,64.4,62.6,29.89,ESE,105,0.0,0.0,91,0.00,,,0.00,0.0,meteohub,2013-06-18 05:57:00,
2013-06-18 02:02:00,64.2,62.4,29.89,ESE,105,0.0,1.0,91,0.00,,,0.00,0.0,meteohub,2013-06-18 06:02:00,
2013-06-18 02:07:00,64.2,62.4,29.88,ESE,105,0.0,1.0,91,0.00,,,0.00,0.0,meteohub,2013-06-18 06:07:00,
2013-06-18 02:32:00,63.9,62.1,29.88,ESE,105,0.0,0.0,91,0.00,,,0.00,0.0,meteohub,2013-06-18 06:32:00,
2013-06-18 02:56:00,63.9,62.4,29.89,ESE,105,0.0,0.0,92,0.00,,,0.00,0.0,meteohub,2013-06-18 06:56:00,
2013-06-18 03:02:00,63.9,62.4,29.88,ESE,105,0.0,0.0,92,0.00,,,0.00,0.0,meteohub,2013-06-18 07:02:00,
2013-06-18 03:17:00,64.0,62.6,29.88,ESE,105,0.0,0.0,92,0.00,,,0.00,0.0,meteohub,2013-06-18 07:17:00,
2013-06-18 03:22:00,64.0,62.6,29.88,ESE,105,0.0,0.0,92,0.00,,,0.00,0.0,meteohub,2013-06-18 07:22:00,
2013-06-18 03:27:00,64.0,62.6,29.88,ESE,105,0.0,0.0,92,0.00,,,0.00,0.0,meteohub,2013-06-18 07:27:00,
2013-06-18 03:32:00,64.0,62.6,29.88,ESE,105,0.0,0.0,92,0.00,,,0.00,0.0,meteohub,2013-06-18 07:32:00,
2013-06-18 03:37:00,64.2,62.8,29.88,ESE,105,0.0,1.0,92,0.00,,,0.00,0.0,meteohub,2013-06-18 07:37:00,
2013-06-18 03:42:00,64.2,62.8,29.88,ESE,105,0.0,1.0,92,0.00,,,0.00,0.0,meteohub,2013-06-18 07:42:00,
2013-06-18 03:47:00,64.2,62.8,29.88,ESE,105,0.0,1.0,92,0.00,,,0.00,0.0,meteohub,2013-06-18 07:47:00,
2013-06-18 03:52:00,64.2,62.8,29.87,ESE,105,0.0,0.0,92,0.00,,,0.00,0.0,meteohub,2013-06-18 07:52:00,
2013-06-18 04:00:00,64.2,62.8,29.86,ESE,105,0.0,0.0,92,0.00,,,0.00,0.0,meteohub,2013-06-18 08:00:00,
2013-06-18 04:06:00,64.2,62.8,29.86,ESE,105,0.0,0.0,92,0.00,,,0.00,0.0,meteohub,2013-06-18 08:06:00,
2013-06-18 04:12:00,64.2,62.8,29.85,ESE,105,0.0,0.0,92,0.00,,,0.00,0.0,meteohub,2013-06-18 08:12:00,
2013-06-18 04:17:00,64.0,62.6,29.85,ESE,105,0.0,0.0,92,0.00,,,0.00,0.0,meteohub,2013-06-18 08:17:00,
2013-06-18 04:22:00,64.0,62.6,29.86,ESE,105,0.0,0.0,92,0.00,,,0.00,0.0,meteohub,2013-06-18 08:22:00,
2013-06-18 04:27:00,64.0,62.6,29.85,ESE,105,0.0,0.0,92,0.00,,,0.00,0.0,meteohub,2013-06-18 08:27:00,
2013-06-18 04:32:00,64.0,62.6,29.85,ESE,105,0.0,0.0,92,0.00,,,0.00,0.0,meteohub,2013-06-18 08:32:00,
2013-06-18 04:37:00,64.0,62.6,29.85,ESE,105,0.0,0.0,92,0.00,,,0.00,0.0,meteohub,2013-06-18 08:37:00,
2013-06-18 04:42:00,63.9,62.4,29.85,ESE,105,0.0,0.0,92,0.00,,,0.00,0.0,meteohub,2013-06-18 08:42:00,
2013-06-18 04:47:00,64.0,62.6,29.85,ESE,105,0.0,0.0,92,0.00,,,0.00,0.0,meteohub,2013-06-18 08:47:00,
2013-06-18 04:52:00,64.0,62.6,29.85,ESE,105,0.0,0.0,92,0.00,,,0.00,0.0,meteohub,2013-06-18 08:52:00,
2013-06-18 04:57:00,64.0,62.6,29.85,ESE,105,0.0,0.0,92,0.00,,,0.00,0.0,meteohub,2013-06-18 08:57:00,
2013-06-18 05:02:00,64.0,62.6,29.85,ESE,105,0.0,0.0,92,0.00,,,0.00,0.0,meteohub,2013-06-18 09:02:00,
2013-06-18 05:07:00,64.0,62.6,29.85,ESE,105,0.0,0.0,92,0.00,,,0.00,0.0,meteohub,2013-06-18 09:07:00,
2013-06-18 05:12:00,64.0,62.6,29.86,ESE,105,0.0,0.0,92,0.00,,,0.00,0.0,meteohub,2013-06-18 09:12:00,
2013-06-18 05:17:00,64.0,62.6,29.86,ESE,105,0.0,2.0,92,0.00,,,0.00,0.0,meteohub,2013-06-18 09:17:00,
2013-06-18 05:22:00,64.0,62.6,29.86,ESE,105,0.0,2.0,92,0.00,,,0.00,0.0,meteohub,2013-06-18 09:22:00,
2013-06-18 05:27:00,64.0,62.6,29.86,ESE,105,0.0,2.0,92,0.00,,,0.00,0.0,meteohub,2013-06-18 09:27:00,
2013-06-18 05:32:00,64.0,62.6,29.87,ESE,105,0.0,0.0,92,0.00,,,0.00,0.0,meteohub,2013-06-18 09:32:00,
2013-06-18 05:37:00,64.0,62.6,29.86,ESE,105,0.0,1.0,92,0.00,,,0.00,0.0,meteohub,2013-06-18 09:37:00,
2013-06-18 05:42:00,64.0,62.6,29.86,ESE,110,0.0,1.0,92,0.00,,,0.00,0.0,meteohub,2013-06-18 09:42:00,
2013-06-18 05:47:00,64.0,62.6,29.86,ESE,110,0.0,1.0,92,0.00,,,0.00,0.0,meteohub,2013-06-18 09:47:00,
2013-06-18 05:52:00,64.0,62.6,29.86,ESE,110,0.0,1.0,92,0.00,,,0.00,0.0,meteohub,2013-06-18 09:52:00,
2013-06-18 05:57:00,64.0,62.6,29.87,ESE,110,0.0,0.0,92,0.00,,,0.00,0.0,meteohub,2013-06-18 09:57:00,
2013-06-18 06:02:00,64.0,62.6,29.87,ESE,110,0.0,0.0,92,0.00,,,0.00,0.0,meteohub,2013-06-18 10:02:00,
2013-06-18 06:07:00,63.9,62.4,29.87,ESE,110,0.0,0.0,92,0.00,,,0.00,0.0,meteohub,2013-06-18 10:07:00,
2013-06-18 06:12:00,64.0,62.6,29.87,ESE,110,0.0,0.0,92,0.00,,,0.00,5.0,meteohub,2013-06-18 10:12:00,
2013-06-18 06:17:00,64.0,62.6,29.87,ESE,110,0.0,0.0,92,0.00,,,0.00,7.0,meteohub,2013-06-18 10:17:00,
2013-06-18 06:22:00,64.0,62.6,29.87,ESE,111,0.0,0.0,92,0.00,,,0.00,5.0,meteohub,2013-06-18 10:22:00,
2013-06-18 06:27:00,64.0,62.6,29.88,SSE,168,0.0,0.0,92,0.00,,,0.00,7.0,meteohub,2013-06-18 10:27:00,
2013-06-18 06:32:00,64.2,62.8,29.88,SSE,168,0.0,1.0,92,0.00,,,0.00,11.0,meteohub,2013-06-18 10:32:00,
2013-06-18 06:37:00,64.2,62.8,29.88,SSE,168,0.0,1.0,92,0.00,,,0.00,11.0,meteohub,2013-06-18 10:37:00,
2013-06-18 06:42:00,64.2,62.8,29.88,SSE,168,0.0,0.0,92,0.00,,,0.00,11.0,meteohub,2013-06-18 10:42:00,
2013-06-18 06:47:00,64.2,62.8,29.88,SSE,168,0.0,0.0,92,0.00,,,0.00,11.0,meteohub,2013-06-18 10:47:00,
2013-06-18 06:52:00,64.2,62.8,29.88,SSE,168,0.0,0.0,92,0.00,,,0.00,14.0,meteohub,2013-06-18 10:52:00,
2013-06-18 06:57:00,64.2,62.8,29.88,SSE,168,0.0,0.0,92,0.00,,,0.00,19.0,meteohub,2013-06-18 10:57:00,
2013-06-18 07:02:00,64.4,63.0,29.88,SSE,168,0.0,0.0,92,0.00,,,0.00,23.0,meteohub,2013-06-18 11:02:00,
2013-06-18 07:07:00,64.4,63.0,29.88,South,169,0.0,0.0,92,0.00,,,0.00,23.0,meteohub,2013-06-18 11:07:00,
2013-06-18 07:12:00,64.4,63.0,29.88,South,169,0.0,0.0,92,0.00,,,0.00,26.0,meteohub,2013-06-18 11:12:00,
2013-06-18 07:17:00,64.4,63.0,29.88,South,169,0.0,0.0,92,0.00,,,0.00,37.0,meteohub,2013-06-18 11:17:00,
2013-06-18 07:22:00,64.6,63.1,29.88,South,169,0.0,0.0,92,0.00,,,0.00,35.0,meteohub,2013-06-18 11:22:00,
2013-06-18 07:27:00,64.6,63.5,29.88,South,169,0.0,0.0,93,0.00,,,0.00,35.0,meteohub,2013-06-18 11:27:00,
2013-06-18 07:32:00,64.6,63.5,29.88,South,169,0.0,0.0,93,0.00,,,0.00,33.0,meteohub,2013-06-18 11:32:00,
2013-06-18 07:37:00,64.6,63.5,29.88,South,169,0.0,0.0,93,0.00,,,0.00,33.0,meteohub,2013-06-18 11:37:00,
2013-06-18 07:42:00,64.8,63.7,29.88,South,169,0.0,0.0,93,0.00,,,0.00,53.0,meteohub,2013-06-18 11:42:00,
2013-06-18 07:47:00,64.9,63.7,29.88,South,169,0.0,1.0,93,0.00,,,0.00,67.0,meteohub,2013-06-18 11:47:00,
2013-06-18 07:52:00,65.1,63.9,29.88,South,169,0.0,1.0,93,0.00,,,0.00,69.0,meteohub,2013-06-18 11:52:00,
2013-06-18 07:57:00,65.1,63.9,29.88,South,169,0.0,1.0,93,0.00,,,0.00,76.0,meteohub,2013-06-18 11:57:00,
2013-06-18 08:02:00,65.3,64.0,29.88,South,169,0.0,1.0,93,0.00,,,0.00,63.0,meteohub,2013-06-18 12:02:00,
2013-06-18 08:07:00,65.5,64.2,29.88,South,169,0.0,0.0,93,0.00,,,0.00,54.0,meteohub,2013-06-18 12:07:00,
2013-06-18 08:12:00,65.5,64.2,29.88,South,169,0.0,0.0,93,0.00,,,0.00,51.0,meteohub,2013-06-18 12:12:00,
2013-06-18 08:17:00,65.5,64.2,29.88,South,169,0.0,0.0,93,0.00,,,0.00,77.0,meteohub,2013-06-18 12:17:00,
2013-06-18 08:22:00,65.7,64.4,29.88,South,169,0.0,0.0,93,0.00,,,0.00,70.0,meteohub,2013-06-18 12:22:00,
2013-06-18 08:27:00,65.7,64.4,29.88,South,169,0.0,0.0,93,0.00,,,0.00,51.0,meteohub,2013-06-18 12:27:00,
2013-06-18 08:32:00,66.0,64.8,29.88,South,169,0.0,0.0,93,0.00,,,0.00,56.0,meteohub,2013-06-18 12:32:00,
2013-06-18 08:37:00,66.0,64.8,29.88,South,169,0.0,0.0,93,0.00,,,0.00,67.0,meteohub,2013-06-18 12:37:00,
2013-06-18 08:42:00,66.2,64.9,29.88,South,169,0.0,0.0,93,0.00,,,0.00,98.0,meteohub,2013-06-18 12:42:00,
2013-06-18 08:47:00,66.4,65.1,29.88,South,169,0.0,0.0,93,0.00,,,0.00,149.0,meteohub,2013-06-18 12:47:00,
2013-06-18 08:52:00,66.9,65.7,29.88,South,169,0.0,0.0,93,0.00,,,0.00,172.0,meteohub,2013-06-18 12:52:00,
2013-06-18 08:57:00,66.9,65.7,29.88,South,169,0.0,0.0,93,0.00,,,0.00,181.0,meteohub,2013-06-18 12:57:00,
2013-06-18 09:04:00,67.1,65.8,29.88,South,169,0.0,0.0,93,0.00,,,0.00,195.0,meteohub,2013-06-18 13:04:00,
2013-06-18 09:10:00,67.5,66.2,29.87,South,169,0.0,0.0,93,0.00,,,0.00,221.0,meteohub,2013-06-18 13:10:00,
2013-06-18 09:16:00,67.8,66.4,29.87,South,169,0.0,0.0,92,0.00,,,0.00,186.0,meteohub,2013-06-18 13:16:00,
2013-06-18 09:22:00,68.0,66.6,29.87,South,169,0.0,0.0,92,0.00,,,0.00,167.0,meteohub,2013-06-18 13:22:00,
2013-06-18 09:27:00,68.2,66.7,29.87,South,169,0.0,1.0,92,0.00,,,0.00,132.0,meteohub,2013-06-18 13:27:00,
2013-06-18 09:32:00,68.4,66.6,29.87,South,182,0.0,1.0,91,0.00,,,0.00,134.0,meteohub,2013-06-18 13:32:00,
2013-06-18 09:37:00,68.4,66.6,29.87,WNW,284,0.0,1.0,91,0.00,,,0.00,125.0,meteohub,2013-06-18 13:37:00,
2013-06-18 09:42:00,68.4,66.6,29.87,WNW,284,0.0,1.0,91,0.00,,,0.00,116.0,meteohub,2013-06-18 13:42:00,
2013-06-18 09:47:00,68.7,66.9,29.87,WNW,284,0.0,1.0,91,0.00,,,0.00,123.0,meteohub,2013-06-18 13:47:00,
2013-06-18 09:52:00,68.9,67.1,29.86,WNW,284,0.0,1.0,91,0.00,,,0.00,141.0,meteohub,2013-06-18 13:52:00,
2013-06-18 09:57:00,69.1,67.3,29.86,WNW,284,0.0,0.0,91,0.00,,,0.00,149.0,meteohub,2013-06-18 13:57:00,
2013-06-18 10:02:00,69.3,67.5,29.87,WNW,284,2.0,0.0,91,0.00,,,0.00,144.0,meteohub,2013-06-18 14:02:00,
2013-06-18 10:07:00,69.3,67.1,29.87,SW,220,2.0,3.0,90,0.00,,,0.00,135.0,meteohub,2013-06-18 14:07:00,
2013-06-18 10:13:00,69.3,67.1,29.86,SW,220,1.0,3.0,90,0.00,,,0.00,132.0,meteohub,2013-06-18 14:13:00,
2013-06-18 10:20:00,69.4,67.3,29.86,SW,220,0.0,3.0,90,0.00,,,0.00,144.0,meteohub,2013-06-18 14:20:00,
2013-06-18 10:26:00,69.6,67.5,29.86,SW,220,0.0,2.0,90,0.00,,,0.00,158.0,meteohub,2013-06-18 14:26:00,
2013-06-18 10:32:00,69.8,67.6,29.86,SW,220,0.0,1.0,90,0.00,,,0.00,144.0,meteohub,2013-06-18 14:32:00,
2013-06-18 10:37:00,70.0,67.8,29.86,WNW,296,0.0,0.0,90,0.00,,,0.00,165.0,meteohub,2013-06-18 14:37:00,
2013-06-18 10:42:00,70.2,68.0,29.86,WNW,296,0.0,0.0,90,0.00,,,0.00,146.0,meteohub,2013-06-18 14:42:00,
2013-06-18 10:47:00,70.3,68.2,29.85,West,279,0.0,1.0,90,0.00,,,0.00,151.0,meteohub,2013-06-18 14:47:00,
2013-06-18 10:52:00,70.5,68.4,29.85,West,279,0.0,1.0,90,0.00,,,0.00,134.0,meteohub,2013-06-18 14:52:00,
2013-06-18 10:57:00,70.7,68.5,29.86,West,281,0.0,1.0,90,0.00,,,0.00,97.0,meteohub,2013-06-18 14:57:00,
2013-06-18 11:02:00,70.7,68.5,29.85,West,281,0.0,0.0,90,0.00,,,0.00,95.0,meteohub,2013-06-18 15:02:00,
2013-06-18 11:07:00,70.9,68.7,29.85,West,281,0.0,0.0,90,0.00,,,0.00,120.0,meteohub,2013-06-18 15:07:00,
2013-06-18 11:12:00,71.1,68.9,29.85,West,281,1.0,0.0,90,0.00,,,0.00,118.0,meteohub,2013-06-18 15:12:00,
2013-06-18 11:17:00,71.1,68.9,29.85,West,281,0.0,2.0,90,0.00,,,0.00,109.0,meteohub,2013-06-18 15:17:00,
2013-06-18 11:22:00,71.1,69.3,29.85,West,281,0.0,2.0,91,0.00,,,0.00,146.0,meteohub,2013-06-18 15:22:00,
2013-06-18 11:27:00,71.4,69.6,29.85,West,281,0.0,2.0,91,0.00,,,0.00,127.0,meteohub,2013-06-18 15:27:00,
2013-06-18 11:32:00,71.6,69.8,29.84,West,281,0.0,1.0,91,0.00,,,0.00,181.0,meteohub,2013-06-18 15:32:00,
2013-06-18 11:38:00,71.8,70.0,29.84,West,281,0.0,0.0,91,0.00,,,0.00,35.0,meteohub,2013-06-18 15:38:00,
2013-06-18 11:45:00,71.6,69.8,29.84,SSW,193,0.0,0.0,91,0.00,,,0.00,28.0,meteohub,2013-06-18 15:45:00,
2013-06-18 11:51:00,71.6,69.8,29.85,SSW,194,1.0,2.0,91,0.00,,,0.00,12.0,meteohub,2013-06-18 15:51:00,
2013-06-18 11:57:00,71.4,69.6,29.85,West,274,0.0,5.0,91,0.00,,,0.00,105.0,meteohub,2013-06-18 15:57:00,
2013-06-18 12:02:00,71.4,70.0,29.85,West,274,0.0,5.0,92,0.00,,,0.00,88.0,meteohub,2013-06-18 16:02:00,
2013-06-18 12:07:00,71.6,70.2,29.84,West,274,0.0,5.0,92,0.00,,,0.00,35.0,meteohub,2013-06-18 16:07:00,
2013-06-18 12:12:00,71.6,69.8,29.84,West,274,0.0,3.0,91,0.00,,,0.00,25.0,meteohub,2013-06-18 16:12:00,
2013-06-18 12:17:00,71.4,69.6,29.83,West,277,2.0,2.0,91,0.00,,,0.00,37.0,meteohub,2013-06-18 16:17:00,
2013-06-18 12:22:00,70.9,68.7,29.83,West,277,0.0,3.0,90,0.00,,,0.00,26.0,meteohub,2013-06-18 16:22:00,
2013-06-18 12:27:00,70.2,67.6,29.82,North,350,0.0,3.0,89,0.00,,,0.00,30.0,meteohub,2013-06-18 16:27:00,
2013-06-18 12:32:00,69.8,67.6,29.82,North,350,0.0,3.0,90,0.00,,,0.00,30.0,meteohub,2013-06-18 16:32:00,
2013-06-18 12:37:00,69.4,67.3,29.82,North,350,0.0,2.0,90,0.00,,,0.00,37.0,meteohub,2013-06-18 16:37:00,
2013-06-18 12:42:00,69.1,67.3,29.82,North,349,0.0,2.0,91,0.00,,,0.00,40.0,meteohub,2013-06-18 16:42:00,
2013-06-18 13:15:00,68.0,66.2,29.82,WSW,248,0.0,3.0,91,0.00,,,0.00,33.0,meteohub,2013-06-18 17:15:00,
2013-06-18 13:41:00,68.0,66.6,29.82,WSW,248,0.0,1.0,92,0.01,,,0.01,70.0,meteohub,2013-06-18 17:41:00,
2013-06-18 13:47:00,68.2,66.7,29.81,WSW,248,0.0,1.0,92,0.01,,,0.01,204.0,meteohub,2013-06-18 17:47:00,
2013-06-18 13:52:00,68.7,67.5,29.81,WSW,248,0.0,2.0,93,0.01,,,0.01,362.0,meteohub,2013-06-18 17:52:00,
2013-06-18 13:57:00,69.6,68.4,29.81,WSW,248,0.0,2.0,93,0.01,,,0.01,559.0,meteohub,2013-06-18 17:57:00,
2013-06-18 14:02:00,70.5,69.3,29.80,WSW,247,0.0,2.0,93,0.01,,,0.01,427.0,meteohub,2013-06-18 18:02:00,
2013-06-18 14:07:00,70.7,69.4,29.80,WSW,244,0.0,2.0,93,0.01,,,0.01,461.0,meteohub,2013-06-18 18:07:00,
2013-06-18 14:12:00,70.9,69.6,29.80,WSW,244,0.0,2.0,93,0.01,,,0.01,411.0,meteohub,2013-06-18 18:12:00,
2013-06-18 14:17:00,71.4,70.2,29.81,WSW,244,0.0,3.0,93,0.01,,,0.01,446.0,meteohub,2013-06-18 18:17:00,
2013-06-18 14:22:00,71.4,70.2,29.81,NW,324,1.0,3.0,93,0.01,,,0.01,287.0,meteohub,2013-06-18 18:22:00,
2013-06-18 14:27:00,71.4,70.2,29.81,West,279,0.0,3.0,93,0.01,,,0.01,294.0,meteohub,2013-06-18 18:27:00,
2013-06-18 14:32:00,71.4,70.2,29.81,West,280,0.0,6.0,93,0.01,,,0.01,345.0,meteohub,2013-06-18 18:32:00,
2013-06-18 14:37:00,71.4,70.0,29.81,WNW,296,1.0,6.0,92,0.00,,,0.01,369.0,meteohub,2013-06-18 18:37:00,
2013-06-18 14:42:00,71.6,70.2,29.81,WNW,302,0.0,6.0,92,0.00,,,0.01,397.0,meteohub,2013-06-18 18:42:00,
2013-06-18 14:47:00,72.3,71.1,29.81,NNE,28,0.0,4.0,93,0.00,,,0.01,466.0,meteohub,2013-06-18 18:47:00,
2013-06-18 14:52:00,72.5,71.1,29.81,West,271,0.0,4.0,92,0.00,,,0.01,424.0,meteohub,2013-06-18 18:52:00,
2013-06-18 14:57:00,72.5,70.7,29.81,West,269,0.0,3.0,91,0.00,,,0.01,545.0,meteohub,2013-06-18 18:57:00,
2013-06-18 15:02:00,73.0,71.6,29.81,NNW,331,0.0,3.0,92,0.00,,,0.01,480.0,meteohub,2013-06-18 19:02:00,
2013-06-18 15:07:00,73.6,72.1,29.81,North,355,0.0,4.0,92,0.00,,,0.01,684.0,meteohub,2013-06-18 19:07:00,
2013-06-18 15:12:00,73.8,71.6,29.81,NW,315,0.0,4.0,90,0.00,,,0.01,399.0,meteohub,2013-06-18 19:12:00,
2013-06-18 15:17:00,74.1,71.6,29.81,West,275,1.0,5.0,89,0.00,,,0.01,353.0,meteohub,2013-06-18 19:17:00,
2013-06-18 15:22:00,73.9,71.1,29.81,WSW,238,2.0,5.0,88,0.00,,,0.01,318.0,meteohub,2013-06-18 19:22:00,
2013-06-18 15:27:00,73.8,70.7,29.81,NNW,327,0.0,7.0,87,0.00,,,0.01,378.0,meteohub,2013-06-18 19:27:00,
2013-06-18 15:32:00,73.8,70.7,29.82,SW,232,1.0,9.0,87,0.00,,,0.01,373.0,meteohub,2013-06-18 19:32:00,
2013-06-18 15:37:00,73.6,70.2,29.82,West,259,0.0,9.0,86,0.00,,,0.01,311.0,meteohub,2013-06-18 19:37:00,
2013-06-18 15:42:00,73.6,69.8,29.82,WNW,295,0.0,9.0,85,0.00,,,0.01,297.0,meteohub,2013-06-18 19:42:00,
2013-06-18 15:47:00,73.6,69.8,29.82,NW,309,1.0,5.0,85,0.00,,,0.01,366.0,meteohub,2013-06-18 19:47:00,
2013-06-18 15:52:00,73.6,69.4,29.82,West,281,0.0,5.0,84,0.00,,,0.01,274.0,meteohub,2013-06-18 19:52:00,
2013-06-18 15:57:00,73.4,68.9,29.82,NNW,348,0.0,5.0,83,0.00,,,0.01,283.0,meteohub,2013-06-18 19:57:00,
2013-06-18 16:02:00,73.2,69.4,29.82,West,267,2.0,5.0,85,0.00,,,0.01,287.0,meteohub,2013-06-18 20:02:00,
2013-06-18 16:07:00,73.2,69.4,29.82,West,265,1.0,5.0,85,0.00,,,0.01,271.0,meteohub,2013-06-18 20:07:00,
2013-06-18 16:12:00,73.2,69.8,29.82,West,259,2.0,5.0,86,0.00,,,0.01,287.0,meteohub,2013-06-18 20:12:00,
2013-06-18 16:17:00,73.0,69.3,29.82,ENE,71,0.0,5.0,85,0.00,,,0.01,313.0,meteohub,2013-06-18 20:17:00,
2013-06-18 16:22:00,73.2,70.2,29.82,NE,46,1.0,5.0,87,0.00,,,0.01,274.0,meteohub,2013-06-18 20:22:00,
2013-06-18 16:27:00,73.0,68.5,29.82,WNW,284,0.0,5.0,83,0.00,,,0.01,244.0,meteohub,2013-06-18 20:27:00,
2013-06-18 16:32:00,72.9,68.7,29.81,NW,319,6.0,6.0,84,0.00,,,0.01,722.0,meteohub,2013-06-18 20:32:00,
2013-06-18 16:37:00,73.4,69.3,29.82,West,277,2.0,10.0,84,0.00,,,0.01,647.0,meteohub,2013-06-18 20:37:00,
2013-06-18 16:42:00,73.4,68.0,29.82,WNW,300,1.0,10.0,80,0.00,,,0.01,260.0,meteohub,2013-06-18 20:42:00,
2013-06-18 16:47:00,73.2,67.8,29.82,North,355,2.0,10.0,80,0.00,,,0.01,243.0,meteohub,2013-06-18 20:47:00,
2013-06-18 16:52:00,72.7,67.6,29.82,WSW,249,0.0,9.0,81,0.00,,,0.01,265.0,meteohub,2013-06-18 20:52:00,
2013-06-18 16:57:00,72.5,67.5,29.82,West,265,0.0,6.0,81,0.00,,,0.01,113.0,meteohub,2013-06-18 20:57:00,
2013-06-18 17:02:00,72.3,67.5,29.82,NW,322,3.0,5.0,82,0.00,,,0.01,113.0,meteohub,2013-06-18 21:02:00,
2013-06-18 17:07:00,72.0,67.5,29.82,NW,313,0.0,7.0,83,0.00,,,0.01,181.0,meteohub,2013-06-18 21:07:00,
2013-06-18 17:12:00,71.8,67.6,29.82,NW,313,0.0,7.0,84,0.00,,,0.01,160.0,meteohub,2013-06-18 21:12:00,
2013-06-18 17:17:00,71.8,67.3,29.82,North,355,2.0,7.0,83,0.00,,,0.01,195.0,meteohub,2013-06-18 21:17:00,
2013-06-18 17:22:00,71.8,67.1,29.82,WSW,237,0.0,6.0,82,0.00,,,0.01,172.0,meteohub,2013-06-18 21:22:00,
2013-06-18 17:27:00,71.8,67.1,29.82,NE,50,0.0,6.0,82,0.00,,,0.01,200.0,meteohub,2013-06-18 21:27:00,
2013-06-18 17:32:00,72.0,67.5,29.82,NE,50,0.0,6.0,83,0.00,,,0.01,223.0,meteohub,2013-06-18 21:32:00,
2013-06-18 17:37:00,72.3,67.8,29.82,NE,50,0.0,4.0,83,0.00,,,0.01,193.0,meteohub,2013-06-18 21:37:00,
2013-06-18 17:42:00,72.3,67.5,29.82,NE,54,3.0,3.0,82,0.00,,,0.01,162.0,meteohub,2013-06-18 21:42:00,
2013-06-18 17:47:00,72.5,68.0,29.82,NE,54,0.0,3.0,83,0.00,,,0.01,200.0,meteohub,2013-06-18 21:47:00,
2013-06-18 17:54:00,72.9,68.7,29.81,NE,54,0.0,3.0,84,0.00,,,0.01,501.0,meteohub,2013-06-18 21:54:00,
2013-06-18 18:00:00,73.6,68.0,29.81,NNE,29,2.0,3.0,80,0.00,,,0.01,408.0,meteohub,2013-06-18 22:00:00,
2013-06-18 18:06:00,74.1,67.5,29.81,ESE,107,0.0,5.0,77,0.00,,,0.01,413.0,meteohub,2013-06-18 22:06:00,
2013-06-18 18:12:00,74.7,68.4,29.81,East,88,0.0,5.0,78,0.00,,,0.01,392.0,meteohub,2013-06-18 22:12:00,
2013-06-18 18:17:00,74.7,67.3,29.81,East,93,0.0,4.0,75,0.00,,,0.01,383.0,meteohub,2013-06-18 22:17:00,
2013-06-18 18:22:00,75.0,67.3,29.81,NNW,331,2.0,4.0,74,0.00,,,0.01,359.0,meteohub,2013-06-18 22:22:00,
2013-06-18 18:27:00,75.2,67.8,29.81,North,0,0.0,3.0,75,0.00,,,0.01,380.0,meteohub,2013-06-18 22:27:00,
2013-06-18 18:33:00,75.4,68.4,29.81,North,0,0.0,3.0,76,0.00,,,0.01,185.0,meteohub,2013-06-18 22:33:00,
2013-06-18 18:39:00,75.2,67.5,29.81,North,0,0.0,2.0,74,0.00,,,0.01,336.0,meteohub,2013-06-18 22:39:00,
2013-06-18 18:45:00,75.4,68.0,29.81,North,0,0.0,1.0,75,0.00,,,0.01,313.0,meteohub,2013-06-18 22:45:00,
2013-06-18 18:51:00,75.9,68.9,29.81,North,0,0.0,1.0,76,0.00,,,0.01,244.0,meteohub,2013-06-18 22:51:00,
2013-06-18 18:57:00,76.1,68.0,29.80,North,0,0.0,1.0,73,0.00,,,0.01,227.0,meteohub,2013-06-18 22:57:00,
2013-06-18 19:02:00,76.3,68.9,29.81,North,0,0.0,0.0,75,0.00,,,0.01,209.0,meteohub,2013-06-18 23:02:00,
2013-06-18 19:07:00,76.5,69.1,29.81,North,0,0.0,0.0,75,0.00,,,0.01,160.0,meteohub,2013-06-18 23:07:00,
2013-06-18 19:12:00,76.3,68.5,29.81,North,0,0.0,0.0,74,0.00,,,0.01,39.0,meteohub,2013-06-18 23:12:00,
2013-06-18 19:17:00,75.9,69.3,29.80,North,0,0.0,1.0,77,0.00,,,0.01,56.0,meteohub,2013-06-18 23:17:00,
2013-06-18 19:22:00,75.4,68.7,29.81,North,0,0.0,2.0,77,0.00,,,0.01,33.0,meteohub,2013-06-18 23:22:00,
2013-06-18 19:27:00,74.5,67.8,29.81,North,0,0.0,2.0,77,0.00,,,0.01,30.0,meteohub,2013-06-18 23:27:00,
2013-06-18 19:32:00,74.1,68.2,29.81,North,0,0.0,2.0,79,0.00,,,0.01,49.0,meteohub,2013-06-18 23:32:00,
2013-06-18 19:37:00,73.6,67.5,29.81,North,0,0.0,1.0,78,0.00,,,0.01,26.0,meteohub,2013-06-18 23:37:00,
2013-06-18 19:42:00,73.0,66.9,29.81,North,0,0.0,2.0,78,0.00,,,0.01,28.0,meteohub,2013-06-18 23:42:00,
2013-06-18 19:47:00,72.5,67.1,29.81,North,0,0.0,3.0,80,0.00,,,0.01,26.0,meteohub,2013-06-18 23:47:00,
2013-06-18 19:52:00,72.3,66.9,29.81,North,0,0.0,3.0,80,0.00,,,0.01,25.0,meteohub,2013-06-18 23:52:00,
2013-06-18 19:57:00,72.0,67.3,29.82,North,0,0.0,2.0,82,0.00,,,0.01,21.0,meteohub,2013-06-18 23:57:00,
2013-06-18 20:02:00,71.6,66.6,29.81,North,0,0.0,1.0,81,0.00,,,0.01,19.0,meteohub,2013-06-19 00:02:00,
2013-06-18 20:07:00,71.4,66.9,29.82,North,0,0.0,0.0,83,0.00,,,0.01,16.0,meteohub,2013-06-19 00:07:00,
2013-06-18 20:12:00,70.9,66.7,29.83,North,0,0.0,1.0,84,0.00,,,0.01,14.0,meteohub,2013-06-19 00:12:00,
2013-06-18 20:17:00,70.5,66.7,29.83,North,0,0.0,1.0,85,0.00,,,0.01,12.0,meteohub,2013-06-19 00:17:00,
2013-06-18 20:22:00,70.2,66.7,29.83,North,0,0.0,1.0,86,0.00,,,0.01,11.0,meteohub,2013-06-19 00:22:00,
2013-06-18 20:27:00,69.8,66.4,29.84,North,0,0.0,0.0,86,0.00,,,0.01,9.0,meteohub,2013-06-19 00:27:00,
2013-06-18 20:32:00,69.4,66.0,29.84,North,0,0.0,0.0,86,0.00,,,0.01,5.0,meteohub,2013-06-19 00:32:00,
2013-06-18 20:37:00,69.1,66.0,29.84,North,0,0.0,0.0,87,0.00,,,0.01,0.0,meteohub,2013-06-19 00:37:00,
2013-06-18 20:42:00,68.9,65.8,29.84,North,0,0.0,0.0,87,0.00,,,0.01,0.0,meteohub,2013-06-19 00:42:00,
2013-06-18 20:47:00,68.4,65.3,29.84,North,0,0.0,0.0,87,0.00,,,0.01,0.0,meteohub,2013-06-19 00:47:00,
2013-06-18 20:52:00,68.2,65.5,29.84,North,0,0.0,0.0,88,0.00,,,0.01,0.0,meteohub,2013-06-19 00:52:00,
2013-06-18 20:57:00,68.0,65.3,29.84,North,0,0.0,0.0,88,0.00,,,0.01,0.0,meteohub,2013-06-19 00:57:00,
2013-06-18 21:02:00,67.5,65.1,29.84,North,0,0.0,0.0,89,0.00,,,0.01,0.0,meteohub,2013-06-19 01:02:00,
2013-06-18 21:07:00,67.3,64.9,29.85,North,0,0.0,0.0,89,0.00,,,0.01,0.0,meteohub,2013-06-19 01:07:00,
2013-06-18 21:12:00,67.1,64.8,29.85,North,0,0.0,0.0,89,0.00,,,0.01,0.0,meteohub,2013-06-19 01:12:00,
2013-06-18 21:17:00,66.7,64.4,29.85,North,0,0.0,1.0,89,0.00,,,0.01,0.0,meteohub,2013-06-19 01:17:00,
2013-06-18 21:22:00,66.6,64.2,29.85,North,0,0.0,1.0,89,0.00,,,0.01,0.0,meteohub,2013-06-19 01:22:00,
2013-06-18 21:27:00,66.4,64.2,29.86,North,0,0.0,1.0,90,0.00,,,0.01,0.0,meteohub,2013-06-19 01:27:00,
2013-06-18 21:32:00,66.2,64.0,29.86,North,0,0.0,1.0,90,0.00,,,0.01,0.0,meteohub,2013-06-19 01:32:00,
2013-06-18 21:37:00,66.0,63.9,29.86,North,0,0.0,1.0,90,0.00,,,0.01,0.0,meteohub,2013-06-19 01:37:00,
2013-06-18 21:42:00,65.8,63.7,29.86,North,0,0.0,0.0,90,0.00,,,0.01,0.0,meteohub,2013-06-19 01:42:00,
2013-06-18 21:47:00,65.5,63.3,29.87,North,0,0.0,0.0,90,0.00,,,0.01,0.0,meteohub,2013-06-19 01:47:00,
2013-06-18 21:52:00,65.3,63.1,29.87,North,0,0.0,1.0,90,0.00,,,0.01,0.0,meteohub,2013-06-19 01:52:00,
2013-06-18 21:57:00,65.3,63.1,29.87,North,0,0.0,1.0,90,0.00,,,0.01,0.0,meteohub,2013-06-19 01:57:00,
2013-06-18 22:02:00,65.1,63.0,29.88,North,0,0.0,0.0,90,0.00,,,0.01,0.0,meteohub,2013-06-19 02:02:00,
2013-06-18 22:07:00,65.1,63.3,29.88,North,0,0.0,0.0,91,0.00,,,0.01,0.0,meteohub,2013-06-19 02:07:00,
2013-06-18 22:12:00,64.9,63.1,29.88,North,0,0.0,0.0,91,0.00,,,0.01,0.0,meteohub,2013-06-19 02:12:00,
2013-06-18 22:17:00,64.8,63.0,29.88,North,0,0.0,0.0,91,0.00,,,0.01,0.0,meteohub,2013-06-19 02:17:00,
2013-06-18 22:22:00,64.6,62.8,29.88,North,0,0.0,0.0,91,0.00,,,0.01,0.0,meteohub,2013-06-19 02:22:00,
2013-06-18 22:27:00,64.4,62.6,29.89,North,0,0.0,0.0,91,0.00,,,0.01,0.0,meteohub,2013-06-19 02:27:00,
2013-06-18 22:32:00,64.4,62.6,29.89,North,0,0.0,0.0,91,0.00,,,0.01,0.0,meteohub,2013-06-19 02:32:00,
2013-06-18 22:37:00,64.2,62.4,29.89,North,0,0.0,2.0,91,0.00,,,0.01,0.0,meteohub,2013-06-19 02:37:00,
2013-06-18 22:42:00,64.2,62.4,29.90,North,0,0.0,2.0,91,0.00,,,0.01,0.0,meteohub,2013-06-19 02:42:00,
2013-06-18 22:47:00,64.0,62.2,29.90,North,0,0.0,1.0,91,0.00,,,0.01,0.0,meteohub,2013-06-19 02:47:00,
2013-06-18 22:52:00,63.9,62.1,29.90,North,0,0.0,0.0,91,0.00,,,0.01,0.0,meteohub,2013-06-19 02:52:00,
2013-06-18 22:57:00,63.9,62.1,29.90,North,0,0.0,0.0,91,0.00,,,0.01,0.0,meteohub,2013-06-19 02:57:00,
2013-06-18 23:02:00,63.7,61.9,29.91,North,0,0.0,0.0,91,0.00,,,0.01,0.0,meteohub,2013-06-19 03:02:00,
2013-06-18 23:07:00,63.7,61.9,29.91,North,0,0.0,0.0,91,0.00,,,0.01,0.0,meteohub,2013-06-19 03:07:00,
2013-06-18 23:12:00,63.5,61.7,29.91,North,0,0.0,0.0,91,0.00,,,0.01,0.0,meteohub,2013-06-19 03:12:00,
2013-06-18 23:17:00,63.5,61.7,29.91,North,0,0.0,0.0,91,0.00,,,0.01,0.0,meteohub,2013-06-19 03:17:00,
2013-06-18 23:22:00,63.3,61.5,29.91,North,0,0.0,0.0,91,0.00,,,0.01,0.0,meteohub,2013-06-19 03:22:00,
2013-06-18 23:27:00,63.3,61.5,29.91,North,0,0.0,0.0,91,0.00,,,0.01,0.0,meteohub,2013-06-19 03:27:00,
2013-06-18 23:32:00,63.1,61.3,29.91,North,0,0.0,0.0,91,0.00,,,0.01,0.0,meteohub,2013-06-19 03:32:00,
2013-06-18 23:37:00,63.0,61.2,29.91,North,0,0.0,0.0,91,0.00,,,0.01,0.0,meteohub,2013-06-19 03:37:00,
2013-06-18 23:42:00,62.8,61.0,29.91,North,0,0.0,0.0,91,0.00,,,0.01,0.0,meteohub,2013-06-19 03:42:00,
2013-06-18 23:47:00,62.8,61.0,29.91,North,0,0.0,0.0,91,0.00,,,0.01,0.0,meteohub,2013-06-19 03:47:00,
2013-06-18 23:52:00,62.6,60.8,29.91,North,0,0.0,0.0,91,0.00,,,0.01,0.0,meteohub,2013-06-19 03:52:00,
2013-06-18 23:57:00,62.6,60.8,29.91,North,0,0.0,1.0,91,0.00,,,0.01,0.0,meteohub,2013-06-19 03:57:00,